Location: Pensacola
(30.4142°N, 87.2155°W)
Time: 16:25:37
(UTC-05:00)

NANOSAT C BR1 - Pass Details

Date: 04 August 2024
Orbit: 544 x 550 km, 98.1° (Epoch: 12 September)

Event Time Altitude Azimuth Distance (km) Brightness Sun altitude
Rises 04:39:25 0° 17° (NNE) 2,751 ? -18.1°
Reaches altitude 10° 04:41:35 10° 22° (NNE) 1,853 ? -17.7°
Maximum altitude 04:45:31 55° 101° (E) 674 ? -17.0°
Enters shadow 04:49:13 11° 179° (S) 1,751 ? -16.4°
